Location: Unspecified
(0.0000°N, 0.0000°E)
Time: 19:07:56
(UTC+00:00)

S-56A Canister/Altair - Visible Passes

Search period start: 07 December 2025 00:00
Search period end: 17 December 2025 00:00
Orbit: 632 x 2485 km, 38.9° (Epoch: 07 December)

Date Brightness Start Highest point End Pass type
(mag) Time Alt. Az. Time Alt. Az. Time Alt. Az.
07 Dec 10.9 03:35:25 12° N 03:42:26 21° NE 03:51:51 10° E visible
07 Dec 7.6 18:31:43 10° WSW 18:36:42 58° NW 18:40:46 12° NE visible
08 Dec 11.0 03:02:43 13° NNE 03:06:52 16° NE 03:14:01 10° ENE visible
08 Dec 10.3 05:00:59 10° NW 05:13:00 60° NE 05:27:45 10° ESE visible
09 Dec 11.1 02:30:02 11° NNE 02:31:21 12° NE 02:35:07 10° ENE visible
09 Dec 10.3 04:27:19 14° NNW 04:37:21 51° NE 04:51:32 10° ESE visible
10 Dec 10.4 03:54:39 22° NNW 04:01:49 43° NE 04:15:07 10° ESE visible
10 Dec 9.6 18:53:43 10° WNW 18:55:57 13° NW 18:58:04 10° NNW visible
11 Dec 10.3 03:21:59 27° N 03:26:22 35° NE 03:38:29 10° ESE visible
11 Dec 10.0 05:19:59 10° NW 05:32:08 78° SW 05:47:20 10° SE visible
11 Dec 9.5 18:17:33 10° W 18:21:15 19° NW 18:24:30 10° N visible
12 Dec 10.4 02:49:19 27° NNE 02:50:59 28° NE 03:01:37 10° E visible
12 Dec 9.8 04:46:36 17° NW 04:56:25 88° SW 05:11:31 10° SE visible
13 Dec 10.7 02:16:38 22° NE 02:16:38 22° NE 02:24:27 10° E visible
13 Dec 9.6 04:13:55 30° NW 04:20:49 82° NE 04:35:34 10° SE visible
14 Dec 11.1 01:43:57 14° ENE 01:43:57 14° ENE 01:46:53 10° E visible
14 Dec 9.5 03:41:14 45° NNW 03:45:17 70° NE 03:59:29 10° SE visible
15 Dec 9.4 03:08:31 56° NNE 03:09:54 59° NE 03:23:15 10° ESE visible
15 Dec 10.2 05:05:48 13° WNW 05:16:00 48° SW 05:30:01 10° SSE visible
16 Dec 9.8 02:35:47 47° ENE 02:35:47 47° ENE 02:46:55 10° ESE visible
16 Dec 9.9 04:33:03 24° WNW 04:40:15 54° SW 04:54:21 10° SE visible
